Location: Treviso
(45.6669°N, 12.2430°E)
Time: 10:20:39
(UTC+02:00)

Tiangong - Visible Passes

Search period start: 23 September 2023 00:00
Search period end: 03 October 2023 00:00
Orbit: 374 x 385 km, 41.5° (Epoch: 22 September)

Date Brightness Start Highest point End Pass type
(mag) Time Alt. Az. Time Alt. Az. Time Alt. Az.
28 Sep 0.4 20:28:58 10° S 20:29:21 11° S 20:29:21 11° S visible
29 Sep 0.6 21:02:44 10° SW 21:03:06 12° SW 21:03:06 12° SW visible
30 Sep -0.4 20:01:40 10° SSW 20:03:58 19° SSE 20:04:35 18° SE visible
01 Oct -0.8 20:35:52 10° SW 20:38:02 28° SSW 20:38:02 28° SSW visible
02 Oct -0.7 19:34:30 10° SW 19:37:08 25° SSE 19:39:16 13° ESE visible
02 Oct 0.6 21:10:32 10° WSW 21:11:21 16° WSW 21:11:21 16° WSW visible
